Location: Berduj
(43.0019°N, 22.3781°E)
Time: 02:54:21
(UTC+00:00)

CZ-2D R/B - Pass Details

Date: 19 October 2019
Orbit: 522 x 538 km, 97.4° (Epoch: 16 November)

Event Time Altitude Azimuth Distance (km) Brightness Sun altitude
Exits shadow 16:36:40 - 140° (SE) 2,526 6.3 -10.7°
Reaches altitude 10° 16:38:36 10° 130° (SE) 1,780 5.5 -11.0°
Maximum altitude 16:41:56 29° 70° (ENE) 1,011 4.1 -11.6°
Drops below altitude 10° 16:45:18 10° 10° (N) 1,800 5.8 -12.3°
Sets 16:47:37 0° 359° (N) 2,698 6.8 -12.7°
